Other Public Products
Issued by NWS Grand Forks, ND

Home | Current Version | Previous Version | Text Only | Print | Product List | Glossary Off
Versions: 1 2 3 4 5 6 7 8 9 10 11 12 13 14 15 16 17 18 19 20 21 22 23 24 25 26 27 28 29 30 31 32 33 34 35 36 37 38 39 40 41 42 43 44 45 46 47 48 49 50

000
FPUS83 KFGF 170210
OPUFGF
PRAIRIE TO PINES WEATHER ROUNDUP
NATIONAL WEATHER SERVICE EASTERN NORTH DAKOTA/GRAND FORKS ND
800 PM CST SAT DEC 16 2017

 **SATELLITE DATA USED TO AUGMENT SKY COVER AT AUTOMATED STATIONS**
 *****  WEATHER ACROSS EASTERN NORTH DAKOTA  *****

CITY           SKY/WX    TMP DP  RH WIND       PRES   REMARKS
GRAND FORKS    FAIR      15  14  95 S7        30.03R WCI   5
GRND FORKS AFB FAIR      14  11  88 SW5       30.02S WCI   6
GRND FORKS NWS   N/A     16 N/A N/A S3          N/A
BUXTON         NOT AVBL
DEVILS LAKE    FAIR      24  22  91 SW7       29.99R WCI  16
FARGO          FAIR      23  21  92 CALM      30.04S FOG
WAHPETON ARPT  FAIR      28  27  93 CALM      30.05R
$$

 *****  WEATHER ACROSS CENTRAL AND WESTERN NORTH DAKOTA  *****

CITY           SKY/WX    TMP DP  RH WIND       PRES   REMARKS
JAMESTOWN      FAIR      31  28  89 CALM      30.01R
BISMARCK       FAIR      32  28  85 W5        30.04R
MINOT          FAIR      30  21  69 SW10      29.98R WCI  21
MINOT AFB      FAIR      28  21  77 W13       29.97R WCI  17
GARRISON         N/A     30  22  72 W13       30.01R WCI  20
WILLISTON      FAIR      23  19  85 SW8       30.02R WCI  14
DICKINSON      FAIR      23  18  81 W5        30.01R WCI  17
HETTINGER      FAIR      25  20  81 CALM      30.04R
$$

 *****  OTHER OBSERVATIONS NORTHEAST NORTH DAKOTA  *****

CITY           SKY/WX    TMP DP  RH WIND       PRES   REMARKS
WALHALLA       FAIR      12  14 100 E6        29.97S WCI   3
LANGDON        FAIR      18  18 100 SW13      29.96R WCI   4
CAVALIER       FAIR      12  10  92 S7        29.99R FOG     WCI   2
GRAFTON        FAIR      16  16 100 S9        30.03S WCI   4
CANDO          FAIR      16  16 100 W9        29.99R WCI   4
FORT TOTTEN      N/A     30  27  87 S2        29.95S
ROLLA          FAIR      25  21  86 W13       29.95R WCI  13
RUGBY          FAIR      23  21  93 W9        29.98R WCI  13
 ***** THE ABOVE OBSERVATIONS ARE NON NWS ARE NOT QUALITY
        CONTROLLED AND MAY MIS-REPORT RAIN FOR SNOW...
$$

 *****  OTHER OBSERVATIONS SOUTHEAST NORTH DAKOTA *****

CITY           SKY/WX    TMP DP  RH WIND       PRES   REMARKS
COOPERSTOWN    FAIR      23  23 100 S6        30.01R WCI  16
VALLEY CITY    FAIR      28  28 100 S3        30.04R
OAKES            N/A     32  32 100 E7        30.04R
GWINNER          N/A     32  28  86 CALM      30.04R
SHEYENNE NWR     N/A     30  27  88 NE3       29.95S
BUFFALO        NOT AVBL
WYNDMERE       NOT AVBL
 ***** THE ABOVE OBSERVATIONS ARE NON NWS ARE NOT QUALITY
       CONTROLLED AND MAY MIS-REPORT RAIN FOR SNOW...
$$

  *****  WEATHER ACROSS NORTHERN MINNESOTA  *****

CITY           SKY/WX    TMP DP  RH WIND       PRES   REMARKS
FLAG ISLAND    CLOUDY    12  10  92 S7        30.00R WCI   2
WARROAD        CLOUDY    18  12  79 CALM      30.01R
ROSEAU         CLOUDY    19  16  86 SW7       30.02R FOG     WCI  10
HALLOCK        FAIR      12  10  92 S10       30.01S FOG     WCI  -1
THF RVR FALLS  FOG       19  17  92 CALM      30.04R VSB 1/4
HALSTAD        NOT AVBL
FOSSTON        CLOUDY    21  21 100 CALM      30.03R
BAUDETTE       CLOUDY    14  13  95 SE6       30.00S FOG     WCI   5
WASKISH        CLOUDY    21  19  93 CALM      30.01S
CROOKSTON      FOG       18  18 100 S3        30.05R VSB 1/2
$$
  *****  WEATHER ACROSS CENTRAL AND WEST MINNESOTA  *****

CITY           SKY/WX    TMP DP  RH WIND       PRES   REMARKS
BEMIDJI        CLOUDY    24  22  93 S5        30.01R WCI  18
PARK RAPIDS    CLOUDY    25  22  88 S3        30.02R
WADENA         CLOUDY    25  21  86 CALM      30.03R
DETROIT LAKES  CLOUDY    28  27  93 NW5       30.04R WCI  23
MOORHEAD       FOG       23  21  93 CALM      30.05S VSB 3/4
FERGUS FALLS   FAIR      27  27 100 CALM      30.07R
ELBOW LAKE     CLOUDY    26  26  97 CALM      30.06R FOG
MORRIS MN      FAIR      28  27  93 E3        30.04S
STAPLES        CLOUDY    23  19  86 CALM      30.04R
WHEATON        FAIR      28  27  93 NE3       30.07S FOG
$$
  *****  WEATHER ELSEWHERE ACROSS MINNESOTA  *****

CITY           SKY/WX    TMP DP  RH WIND       PRES   REMARKS
DULUTH         MOCLDY    19  14  81 S9        30.04S WCI   8
INTRNTL FALLS  CLOUDY    14  11  87 SE5       30.03R FOG     WCI   6
ELY            CLOUDY    21  16  79 S6        30.03S WCI  14
CLOQUET        MOCLDY    19  10  68 CALM      30.06R
BRAINERD       CLOUDY    22  18  85 CALM      30.06R
HIBBING        CLOUDY    20  16  84 S5        30.04R WCI  13
ALEXANDRIA     CLOUDY    27  25  92 S7        30.05R WCI  19
SAINT CLOUD    CLOUDY    24  20  84 CALM      30.08R
MINNEAPOLIS    CLOUDY    26  20  77 NE6       30.08R WCI  19
$$

  *****  WEATHER ACROSS SOUTH DAKOTA  *****

CITY           SKY/WX    TMP DP  RH WIND       PRES   REMARKS
SIOUX FALLS    FAIR      30  27  88 NE6       30.03R WCI  24
BROOKINGS      CLOUDY    34  31  88 NE3       30.04R
WATERTOWN      CLOUDY    33  31  92 E7        30.03R
HURON          CLOUDY    36  33  89 N3        30.05R
SISSETON         N/A     31  29  92 CALM      30.06R
ABERDEEN       CLOUDY    33  29  85 W3        30.05R
MITCHELL       FAIR      34  32  92 N3        30.05R
PIERRE         CLOUDY    35  31  85 CALM      30.05R
MOBRIDGE       CLOUDY    34  29  82 CALM      30.03R
RAPID CITY     CLOUDY    33  24  69 N9        30.03R
$$

  *****  SOME WEATHER IN NEARBY STATES *****

CITY           SKY/WX    TMP DP  RH WIND       PRES   REMARKS
GLASGOW MT     CLOUDY    28  19  69 NW3       30.04R
GREAT FALLS MT MOCLDY    28  21  75 S13       30.00F WCI  17
CHEYENNE WY    MOCLDY    29  26  89 NE10      29.89R WCI  20
SCOTTSBLUFF NE CLOUDY    35  28  75 NE13      29.98R
OMAHA NE       FAIR      34  23  64 NW7       29.95S
DES MOINES IA  FAIR      39  26  59 CALM      29.97R
DAVENPORT IA   FAIR      31  22  69 E5        30.02R
CHICAGO IL     FAIR      35  29  78 NE5       30.03R
EAU CLAIRE WI  CLOUDY    24  19  81 SE8       30.08R WCI  15
LA CROSSE WI   CLOUDY    29  25  85 E9        30.07R WCI  20
$$

  *****  SOME NATIONAL WEATHER *****

CITY           SKY/WX    TMP DP  RH WIND       PRES   REMARKS
LA GUARDIA NY  CLOUDY    38  26  62 NW10      30.15R
RALEIGH NC     FAIR      37  24  59 CALM      30.26R
ATLANTA GA     FAIR      40  30  67 CALM      30.26S
NEW ORLEANS LA MOCLDY    56  51  84 E9        30.18S
OKLAHOMA CITY  CLOUDY    49  31  49 S22G31    29.92S
ALBUQUERQUE NM MOCLDY    38  15  39 E7        29.81R
SALT LAKE CITY LGT SNOW  32  30  92 NW9       29.99R FOG     WCI  24
LOS ANGELES CA FAIR      61  52  72 NW7       29.74R
BOISE ID       FAIR      31  24  75 W12       30.13R WCI  22
SEATTLE WA     MOCLDY    43  40  89 SE6       30.28R
$$

*** WEATHER ACROSS MANITOBA...SASKATCHEWAN AND ONTARIO ***
                ***ONTARIO***

CITY           SKY/WX    TMP DP  RH WIND       PRES   REMARKS
GERALDTON      FLURRIES  -8 -13  77 SE6       30.17S WCI -21
THUNDER BAY    FLURRIES  12   9  85 NW3       30.17R
SIOUX LOOKOUT  LGT SNOW   5   1  85 SE6       30.02S WCI  -6
TORONTO        PTCLDY    16   9  73 N12       30.19R WCI   3
BIG TROUT LK   PTCLDY    -9 -15  77 S10       30.06S WCI -28
PICKLE LAKE    FLURRIES  -8 -13  77 S10       30.04F WCI -26
DRYDEN         LGT SNOW   7   5  92 S8        30.00R WCI  -6
KENORA         LGT SNOW   9   7  92 S9        29.97F FOG     WCI  -5
$$
                *** MANITOBA***

CITY           SKY/WX    TMP DP  RH WIND       PRES   REMARKS
BRANDON        PTCLDY    16  14  93 SW8       29.92R WCI   5
DAUPHIN        CLOUDY    27  21  80 W14G21    29.86S WCI  15
ISLAND LAKE    CLOUDY    -2  -8  78 SE9       29.93S WCI -18
PILOT MOUND      N/A     14  10  85 SW7         N/A  WCI   4
THE PAS        LGT SNOW  10   7  85 SE3       29.81F FOG
THOMPSON       PTCLDY    -8 -13  77 S2        29.85F
WINNIPEG       CLOUDY    16  14  93 S15       29.97S FOG     WCI   1
LYNN LAKE      CLOUDY     0  -2  92 S5        29.75F WCI -10
CHURCHILL      CLOUDY    -8 -13  77 S6        29.88F WCI -21
GILLAM         MOCLDY    -6 -11  77 S7        29.91F WCI -20
$$
                ***SASKATCHEWAN***

CITY           SKY/WX    TMP DP  RH WIND       PRES   REMARKS
ESTEVAN        CLEAR     21  16  79 SW9       29.96R WCI  11
KINDERSLEY     PTCLDY    21  16  79 W10       29.91F WCI  10
LLOYDMINSTER   CLEAR     23  18  80 SW13      29.81F WCI  11
PRINCE ALBERT  CLOUDY    30  25  80 W6        29.83S WCI  24
REGINA         PTCLDY    27  19  74 W15       29.92R WCI  15
YORKTON        CLOUDY    28  23  80 SW10      29.84F WC


USA.gov is the U.S. government's official web portal to all federal, state and local government web resources and services.